User: anonymous   Login
Location: Unspecified
(0.0000°N, 0.0000°E)
Time: 02:31:55
(UTC+00:00)
Language:

RESURS DK-1 - Orbit

View from above orbital plane
View from above orbital plane
View from above satellite
View from above satellite

Ground track
Ground track

The orbit data is extracted from the following two-line orbital elements,

1 29228U 06021A   15063.76272225  .00000939  00000-0  80328-4 0  9996
2 29228 069.9373 062.4499 0006446 212.8823 202.9269 15.01284515482671
Epoch (UTC): 04 March 2015 18:18:19
Eccentricity: 0.0006446
inclination: 69.9373°
perigee height: 558 km
apogee height: 567 km
right ascension of ascending node: 62.4499°
argument of perigee: 212.8823°
revolutions per day: 15.01284515
mean anomaly at epoch: 202.9269°
orbit number at epoch: 48267

The dashed part of the orbit path shows where the satellite is in the earth's shadow,  

DLR